Location: Goettingen
(51.5300°N, 9.9433°E)
Time: 11:37:37
(UTC+02:00)

ISS - Pass Details

Date: 18 May 2025
Orbit: 416 x 419 km, 51.6° (Epoch: 18 May)

Event Time Altitude Azimuth Distance (km) Brightness Sun altitude
Rises 23:02:22 0° 282° (WNW) 2,362 0.8 -12.9°
Reaches altitude 10° 23:04:28 10° 279° (W) 1,497 -0.4 -13.1°
Maximum altitude 23:07:48 65° 198° (SSW) 464 -3.8 -13.3°
Enters shadow 23:09:42 23° 121° (ESE) 935 -2.5 -13.5°
